Location: Ernsee
(50.8780°N, 12.0389°E)
Time: 09:15:03
(UTC+00:00)

Cosmos 1076 Rocket - Pass Details

Date: 20 January 2020
Orbit: 590 x 612 km, 82.5° (Epoch: 16 February)

Event Time Altitude Azimuth Distance (km) Brightness Sun altitude
Rises 05:48:02 0° 353° (N) 2,888 6.7 -11.7°
Reaches altitude 10° 05:50:19 10° 358° (N) 1,981 6.0 -11.4°
Maximum altitude 05:54:36 52° 75° (ENE) 765 4.4 -10.7°
Drops below altitude 10° 05:58:52 10° 153° (SSE) 1,967 6.9 -10.1°
Sets 06:01:07 0° 158° (SSE) 2,866 7.7 -9.7°
